User: anonymous   Login
Location: Bangkok
(13.7500°N, 100.5170°E)
Time: 09:03:26
(UTC+07:00)
Language:

ERBS - Orbit

View from above orbital plane
View from above orbital plane
View from above satellite
View from above satellite

Ground track
Ground track

The orbit data is extracted from the following two-line orbital elements,

1 15354U 84108B   16211.12982764  .00001887  00000-0  54057-4 0  9998
2 15354  57.0095  86.8206 0009960 182.2862 177.8148 15.41186796748350
Epoch (UTC): 29 July 2016 03:06:57
Eccentricity: 0.0009960
inclination: 57.0095°
perigee height: 436 km
apogee height: 449 km
right ascension of ascending node: 86.8206°
argument of perigee: 182.2862°
revolutions per day: 15.41186796
mean anomaly at epoch: 177.8148°
orbit number at epoch: 74835

The dashed part of the orbit path shows where the satellite is in the earth's shadow,  

DLR